Location: *
(43.9905°S, 176.4941°W)
Time: 05:12:08
(UTC+00:00)

Cosmos 1758 - Pass Details

Date: 08 December 2019
Orbit: 539 x 564 km, 82.5° (Epoch: 27 January)

Event Time Altitude Azimuth Distance (km) Brightness Sun altitude
Exits shadow 10:17:06 61° 58° (ENE) 630 3.3 -20.8°
Maximum altitude 10:17:24 64° 85° (E) 616 3.3 -20.8°
Drops below altitude 10° 10:21:25 10° 165° (SSE) 1,841 6.8 -21.0°
Sets 10:23:36 0° 168° (SSE) 2,742 7.9 -21.2°
